Hudson Falls, NY

1:43 PM EDT on August 24, 2016 (GMT -0400)
Bennett Memorial

Weather History for KGFL - February, 2012

Change the Weather History Date:

Tuesday, February 7, 2012

  Actual Average Record
Temperature  
Mean Temperature 29 °F 19 °F  
Max Temperature 38 °F 31 °F 48 °F (1951)
Min Temperature 20 °F 8 °F -26 °F (1993)
Degree Days  
Heating Degree Days 36 46  
Month to date heating degree days 246 323  
Since 1 July heating degree days 3723 4719  
Cooling Degree Days 0 0  
Month to date cooling degree days 0 0  
Year to date cooling degree days 0 0  
Moisture  
Dew Point 22 °F    
Average Humidity 68    
Maximum Humidity 77    
Minimum Humidity 59    
Precipitation  
Precipitation 0.00 in 0.07 in 0.93 in (1983)
Month to date precipitation 0.01 0.54  
Year to date precipitation 2.44 3.40  
Sea Level Pressure  
Sea Level Pressure 30.10 in    
Wind  
Wind Speed 6 mph (NE)    
Max Wind Speed 13 mph    
Max Gust Speed 18 mph    
Visibility 10 miles    
Events      
T = Trace of Precipitation, MM = Missing Value Source: NWS Daily Summary

Daily Weather History Graph

Daily Weather History Graph

Search for Another Location

Airport or City:

Trip Planner

Search our weather history database for the weather conditions in past years. The results will help you decide how hot, cold, wet, or windy it might be!

Date:

Astronomy

Feb. 07, 2012 Rise Set
Actual Time 7:03 AM EST 5:13 PM EST
Civil Twilight 6:34 AM EST 5:43 PM EST
Nautical Twilight 6:00 AM EST 6:17 PM EST
Astronomical Twilight 5:26 AM EST 6:50 PM EST
Moon 5:23 PM EST (2/7) 6:30 AM EST (2/7)
Length of Visible Light 11h 09m
Length of Day
10h 09m
Full, 100% of the Moon is Illuminated
Feb 7
Full
Feb 7
Full
Feb 14
Last Quarter
Feb 21
New
Feb 29
First Quarter

Hourly Weather History & Observations

Time (EST) Temp. Windchill Dew Point Humidity Pressure Visibility Wind Dir Wind Speed Gust Speed Precip Events Conditions
12:53 AM 33.1 °F 28.7 °F 24.1 °F 70% 29.93 in 10.0 mi SW 4.6 mph - N/A   Mostly Cloudy
1:53 AM 35.1 °F 31.0 °F 24.1 °F 64% 29.93 in 10.0 mi SW 4.6 mph - N/A   Overcast
2:53 AM 35.1 °F 32.2 °F 26.1 °F 70% 29.93 in 10.0 mi SSW 3.5 mph - N/A   Overcast
3:53 AM 36.0 °F 32.1 °F 26.1 °F 67% 29.94 in 10.0 mi SW 4.6 mph - N/A   Overcast
4:53 AM 34.0 °F - 26.1 °F 73% 29.96 in 10.0 mi Calm Calm - N/A   Overcast
5:53 AM 34.0 °F 29.8 °F 26.1 °F 73% 29.98 in 10.0 mi North 4.6 mph - N/A   Overcast
6:53 AM 36.0 °F - 26.1 °F 67% 30.00 in 10.0 mi Calm Calm - N/A   Overcast
7:53 AM 37.9 °F 33.5 °F 25.0 °F 60% 30.02 in 10.0 mi NNW 5.8 mph - N/A   Overcast
8:53 AM 37.9 °F 32.7 °F 25.0 °F 60% 30.05 in 10.0 mi NNW 6.9 mph - N/A   Overcast
9:53 AM 37.0 °F 31.6 °F 27.0 °F 67% 30.07 in 10.0 mi NNW 6.9 mph - N/A   Overcast
10:53 AM 37.9 °F 31.5 °F 26.1 °F 62% 30.08 in 10.0 mi North 9.2 mph - N/A   Overcast
11:25 AM 33.8 °F 25.8 °F 26.6 °F 75% 30.07 in 10.0 mi ENE 10.4 mph - N/A   Overcast
11:53 AM 34.0 °F 26.0 °F 27.0 °F 75% 30.10 in 10.0 mi ENE 10.4 mph - N/A   Overcast
12:53 PM 34.0 °F 25.5 °F 25.0 °F 70% 30.09 in 10.0 mi East 11.5 mph - N/A   Overcast
1:53 PM 33.1 °F 26.1 °F 25.0 °F 72% 30.10 in 10.0 mi ENE 8.1 mph - N/A   Overcast
2:53 PM 32.0 °F 23.6 °F 21.9 °F 66% 30.12 in 10.0 mi ENE 10.4 mph - N/A   Overcast
3:53 PM 30.9 °F 22.2 °F 21.0 °F 67% 30.14 in 10.0 mi ENE 10.4 mph - N/A   Overcast
4:53 PM 30.0 °F 23.2 °F 19.0 °F 64% 30.16 in 10.0 mi ENE 6.9 mph - N/A   Scattered Clouds
5:53 PM 27.0 °F 23.0 °F 19.0 °F 72% 30.19 in 10.0 mi ENE 3.5 mph - N/A   Clear
6:53 PM 25.0 °F 17.1 °F 18.0 °F 75% 30.22 in 10.0 mi ESE 6.9 mph - N/A   Clear
7:53 PM 23.0 °F - 16.0 °F 74% 30.26 in 10.0 mi Calm Calm - N/A   Clear
8:53 PM 21.9 °F 13.4 °F 15.1 °F 75% 30.28 in 10.0 mi East 6.9 mph - N/A   Clear
9:53 PM 21.0 °F 13.4 °F 14.0 °F 74% 30.30 in 10.0 mi NE 5.8 mph - N/A   Clear
10:53 PM 21.9 °F 12.5 °F 10.0 °F 60% 30.31 in 10.0 mi NNE 8.1 mph - N/A   Clear
11:53 PM 19.9 °F 11.1 °F 10.9 °F 68% 30.33 in 10.0 mi NE 6.9 mph - N/A   Clear